Location: Vihti�l�
(61.3833°N, 23.0667°E)
Time: 02:51:41
(UTC+00:00)

NOSS 2-3 (C) - Pass Details

Date: 29 November 2020
Orbit: 568 x 1643 km, 63.3° (Epoch: 16 January)

Event Time Altitude Azimuth Distance (km) Brightness Sun altitude
Exits shadow 03:51:01 44° 294° (WNW) 1,166 4.5 -21.8°
Maximum altitude 03:52:53 78° 11° (N) 937 4.3 -21.6°
Drops below altitude 10° 03:59:54 10° 99° (E) 3,012 8.3 -20.7°
Sets 04:03:00 0° 101° (E) 4,149 9.4 -20.4°
